Lapse_Rate
6.4 5.9 6.4 6.6 6.6 6.7 6.9 6.8 7.0 6.7 6.8 5.4 6.4 6.3 6.3 6.2 6.1 6.1 6.0 6.0 5.9 5.9 5.9 6.1 6.0 5.8 6.0 5.9 5.8 5.9 5.7 5.5 6.1 5.9 5.5 5.0 5.1 5.2 5.1 5.2 5.4 5.6 5.8
6.7 6.0 6.4 6.5 6.1 6.3 6.5 6.5 6.8 6.3 6.6 4.8 6.4 6.5 6.2 6.1 5.9 5.8 5.9 5.8 5.9 5.9 5.8 5.8 5.8 5.9 5.9 5.9 5.8 5.6 5.7 5.8 5.8 5.9 5.9 5.4 5.0 4.9 5.2 5.4 5.4 5.5 5.4
5.7 5.5 5.6 5.7 6.5 6.8 6.7 6.5 5.7 6.4 6.0 5.3 6.2 5.9 5.9 6.1 5.9 5.9 6.0 6.0 5.8 5.8 5.7 5.6 5.6 5.6 5.8 5.7 5.8 5.8 5.6 5.7 6.0 6.0 5.9 5.7 5.6 5.4 5.2 5.3 5.3 5.4 5.6
4.9 5.5 5.3 5.4 6.5 6.7 6.9 6.1 5.6 6.0 5.7 5.8 5.4 5.5 5.7 5.7 5.6 5.6 5.7 5.5 5.5 5.5 5.4 5.6 5.7 5.8 5.8 5.8 5.5 5.5 5.3 5.3 5.4 5.9 6.3 5.8 5.6 5.6 5.6 5.3 5.3 5.3 5.6
5.7 5.9 5.7 5.8 6.0 6.9 6.4 5.0 5.2 5.8 6.1 5.4 5.3 5.4 5.3 5.2 5.1 5.0 5.0 5.2 5.2 5.3 5.6 5.7 5.7 5.8 5.7 5.6 5.8 5.7 5.5 5.3 5.4 5.4 5.8 6.3 5.8 5.6 5.5 5.4 5.5 5.2 5.2
5.8 5.9 6.2 5.9 5.9 5.6 5.8 5.8 5.8 5.4 5.3 5.0 4.9 4.8 5.0 5.2 5.3 5.4 5.4 5.4 5.3 5.3 5.4 5.5 5.4 5.4 5.7 5.6 5.5 5.9 5.8 5.6 5.6 5.6 5.8 5.9 6.3 5.7 5.6 5.4 5.5 5.7 5.5
5.8 5.8 5.7 5.7 5.5 5.4 5.3 5.4 5.6 5.4 5.2 5.0 4.9 5.0 5.2 5.5 5.8 5.8 5.8 5.6 5.7 5.7 5.7 5.7 5.9 5.8 5.7 5.8 5.9 5.8 5.8 5.8 5.8 5.7 5.5 5.5 6.0 6.1 5.9 5.6 5.4 5.3 5.7
5.8 5.7 5.5 5.7 5.7 5.5 5.3 5.0 5.1 5.2 5.2 5.2 5.3 5.5 5.7 5.9 5.9 5.8 5.8 5.7 5.8 5.8 5.8 5.8 5.7 5.8 5.9 5.9 6.0 5.9 5.9 6.0 5.9 5.7 5.7 5.9 5.4 5.7 5.6 5.8 5.5 5.3 5.4
5.7 5.6 5.6 5.8 5.8 5.8 5.5 5.4 5.3 5.3 5.4 5.5 5.8 5.9 6.0 6.2 6.2 6.1 6.1 6.0 5.9 6.0 6.1 6.1 5.9 5.7 5.7 5.5 5.2 5.7 6.1 6.0 5.9 5.9 6.0 5.7 5.6 5.4 5.4 5.5 5.5 5.5 5.1
5.5 5.6 5.5 5.5 5.4 5.3 5.3 5.4 5.5 5.7 5.9 6.0 6.0 6.0 6.1 6.1 6.0 5.8 5.6 5.6 5.6 5.5 5.4 5.5 5.6 5.7 5.7 5.6 5.4 5.2 5.3 6.1 5.7 5.8 5.8 5.9 5.7 5.6 5.5 5.5 5.6 5.5 5.3
5.5 5.4 5.2 5.2 5.2 5.4 5.5 5.6 5.7 5.7 5.7 5.6 5.6 5.6 5.7 5.8 5.8 5.7 5.4 5.4 5.4 5.6 5.5 5.4 5.4 5.4 5.4 5.3 5.6 5.9 5.9 5.0 5.2 5.0 5.5 5.8 5.8 5.8 5.7 5.5 5.6 5.5 5.4
5.4 5.4 5.5 5.5 5.5 5.5 5.5 5.5 5.5 5.5 5.6 5.7 5.7 5.7 5.7 5.7 5.8 5.8 5.7 5.6 5.6 5.5 5.7 5.9 6.2 6.3 6.0 5.8 5.7 5.6 5.4 5.1 5.1 5.4 5.3 5.4 5.7 5.7 5.8 5.7 5.7 5.5 5.4
5.8 5.9 5.8 5.8 5.7 5.7 5.6 5.6 5.6 5.5 5.5 5.5 5.4 5.5 5.7 5.8 5.8 5.8 5.7 5.6 5.6 5.8 5.9 6.0 6.2 6.0 6.1 6.0 5.9 5.7 5.4 5.2 5.1 5.4 5.6 5.3 5.3 5.6 5.4 5.5 5.7 5.8 5.4
5.8 5.8 5.8 5.8 5.8 5.8 5.6 5.5 5.4 5.3 5.3 5.3 5.3 5.4 5.6 5.8 6.0 6.2 6.3 6.1 6.2 6.0 5.8 5.9 5.9 5.9 5.7 5.7 5.6 5.8 5.1 4.6 4.8 4.9 5.5 5.6 5.9 5.4 5.2 5.0 5.4 5.6 5.5
5.7 5.6 5.5 5.3 5.2 5.0 4.8 4.7 4.7 4.7 4.7 4.9 5.0 5.3 5.6 5.9 6.0 6.1 6.0 5.8 5.4 5.4 5.8 6.0 5.9 5.6 5.7 5.8 5.7 5.5 4.9 4.9 4.7 4.8 5.1 5.0 5.1 5.4 5.2 5.0 4.9 5.3 5.3
5.5 5.4 5.3 5.1 4.9 4.7 4.7 4.8 4.7 4.8 4.7 4.7 4.6 4.6 5.0 5.0 5.1 4.8 4.6 4.7 4.9 5.3 5.8 6.1 6.1 5.7 5.5 5.5 5.8 5.7 5.3 4.5 4.8 5.1 4.6 4.9 4.7 5.0 5.2 5.0 4.7 4.9 5.1
5.3 5.2 4.9 4.7 4.6 4.6 4.6 4.5 4.6 4.9 5.0 5.0 5.1 5.1 5.2 5.2 4.8 4.3 4.3 4.2 4.4 4.9 5.4 5.7 5.8 5.4 5.0 5.0 5.2 5.6 5.5 5.0 4.6 4.6 4.9 4.5 4.7 4.7 4.8 5.0 4.9 4.9 4.9
5.1 4.9 4.9 4.8 4.7 4.7 4.6 4.5 4.6 4.7 4.9 5.1 5.3 5.3 4.9 4.6 3.9 3.8 4.0 4.0 4.4 4.8 5.2 5.5 5.3 4.9 3.8 4.0 4.7 5.2 5.4 5.3 4.6 4.3 4.4 4.6 4.5 4.8 4.8 4.9 5.0 5.0 5.0
5.1 5.0 4.9 4.9 4.7 4.7 4.7 4.8 4.9 5.0 5.1 5.1 5.1 4.7 4.4 4.4 4.3 4.2 4.5 4.5 4.7 5.0 5.2 5.1 5.1 4.7 3.7 3.5 4.2 4.8 5.1 5.2 5.0 4.5 4.1 4.1 4.6 4.7 5.0 5.2 5.2 5.2 5.2
5.0 4.9 4.9 4.8 4.8 4.8 4.9 4.9 4.9 4.9 4.8 4.7 4.3 4.2 3.8 4.0 4.6 4.9 5.1 4.8 4.8 4.7 5.0 5.2 5.1 5.0 4.7 4.2 4.3 4.4 4.8 4.8 4.9 4.8 4.6 4.3 4.5 4.8 5.1 5.1 5.2 5.2 5.3
4.7 4.6 4.4 4.4 4.6 4.8 4.8 4.9 4.7 4.4 4.4 4.0 4.0 3.7 3.6 3.9 4.6 4.7 5.0 5.2 5.0 5.2 4.9 4.8 5.0 5.0 5.0 5.0 4.7 4.4 4.6 4.9 4.9 4.9 4.6 4.3 4.5 4.6 4.9 5.1 5.1 5.2 5.5
4.6 4.6 4.7 4.9 4.9 5.0 5.0 4.8 4.5 4.5 4.2 4.0 4.1 4.6 4.9 4.9 4.9 4.9 5.0 5.2 5.3 5.3 5.2 5.1 4.9 5.0 5.0 5.5 5.7 5.2 4.7 4.6 4.1 4.4 4.3 4.1 4.3 4.4 4.8 5.1 5.3 5.6 5.8
4.7 4.9 5.0 5.0 5.0 5.1 4.9 4.8 4.6 4.4 4.4 4.5 4.6 4.5 4.6 4.7 4.7 4.9 4.8 4.9 5.3 5.4 5.3 5.3 5.0 4.7 5.0 5.7 5.7 5.4 5.2 4.7 4.4 4.5 4.5 4.5 4.7 4.5 4.8 5.1 5.4 5.8 6.0
5.0 5.2 5.1 5.1 5.1 5.0 5.1 4.7 4.7 4.5 4.5 4.4 4.2 4.3 4.3 4.3 4.3 4.5 4.8 4.9 5.1 5.4 5.4 5.4 5.3 5.5 5.2 5.2 5.4 4.8 4.7 4.8 4.9 4.7 4.5 4.6 4.7 4.7 4.8 5.1 5.3 5.7 5.8
5.3 5.2 5.1 5.1 5.1 5.2 5.0 4.6 4.6 4.3 4.4 4.3 4.4 4.4 4.6 4.7 4.4 4.6 4.6 4.5 4.7 5.2 5.3 5.6 5.6 5.5 5.6 5.6 5.4 5.0 5.0 5.2 5.0 4.7 4.6 4.4 4.5 4.4 4.6 4.7 4.9 5.3 5.6
5.2 5.1 5.0 5.2 5.2 5.0 4.7 4.5 4.3 4.3 4.5 4.6 4.6 4.5 4.5 4.5 4.7 4.9 4.8 4.7 4.9 5.1 5.3 5.5 5.5 5.5 5.7 5.8 5.7 5.4 5.0 4.9 4.8 4.6 4.4 4.3 4.6 4.5 4.5 4.8 5.0 5.3 5.6
Wind_Speed
7 4 8 7 7 6 6 7 7 6 4 3 18 7 5 4 3 2 2 2 3 4 5 6 7 8 8 7 5 6 6 7 10 12 9 10 12 10 9 10 12 14 14
3 5 8 6 10 8 4 5 4 9 3 9 10 7 6 5 4 3 3 2 3 5 7 7 9 7 8 7 6 8 6 6 6 13 12 10 11 9 8 9 8 13 12
4 2 6 8 6 2 3 5 7 9 10 12 5 6 6 5 5 4 3 3 4 6 8 9 10 10 10 10 10 8 8 7 6 5 9 9 9 9 9 9 8 10 13
5 4 3 6 3 4 6 8 8 9 8 8 4 4 5 5 5 5 4 4 6 7 8 9 10 12 13 13 12 12 11 9 9 6 7 8 9 10 9 10 10 9 9
3 3 4 4 1 9 10 8 8 4 6 4 4 5 4 5 5 4 4 7 8 9 10 10 12 13 14 14 11 12 11 11 10 9 9 9 8 7 10 10 10 9 8
4 0 4 6 10 9 7 6 3 3 2 3 4 4 5 5 7 5 7 8 11 11 12 13 13 15 16 16 18 19 16 13 13 11 10 11 9 9 7 9 9 11 10
7 7 10 10 10 9 8 8 9 9 8 7 6 6 7 7 6 10 12 11 11 13 14 14 14 13 13 15 15 16 17 18 19 13 14 13 12 11 10 9 12 11 11
10 10 10 9 8 8 8 8 7 7 8 8 9 9 10 9 10 12 15 14 13 14 15 15 16 16 15 15 16 17 18 17 16 12 15 14 14 12 12 7 10 12 10
9 8 8 8 8 9 11 11 10 9 9 9 9 11 11 12 11 11 12 13 14 15 14 14 15 16 16 15 17 18 18 17 12 14 15 14 11 11 13 9 7 8 8
8 8 9 8 8 7 6 6 6 7 8 9 11 11 12 13 12 10 11 10 13 11 15 15 14 15 17 17 17 16 17 17 16 16 13 12 14 14 15 13 11 9 7
6 6 7 5 5 6 7 6 8 8 9 10 11 12 13 12 12 11 13 12 11 10 10 12 13 8 6 11 17 16 15 16 16 13 13 12 11 11 11 12 13 12 11
6 7 7 8 7 7 8 7 9 9 9 11 11 12 10 11 10 10 11 14 17 13 13 9 9 13 18 16 14 13 14 11 12 11 11 12 11 10 11 12 13 12 12
6 7 7 6 6 6 8 9 8 9 9 10 10 11 11 11 11 13 11 15 17 14 12 15 15 14 14 14 14 8 9 8 9 10 10 10 10 9 9 10 11 13 13
3 4 4 4 6 6 6 7 8 9 10 11 11 11 12 11 11 12 11 12 18 15 18 15 16 17 20 19 13 10 9 8 10 9 9 9 9 8 9 9 9 8 9
2 3 4 5 6 7 7 7 8 9 8 11 11 11 11 11 12 14 15 15 14 18 19 14 12 13 13 12 12 12 7 8 6 8 9 10 9 9 10 10 9 9 10
5 5 5 6 6 7 8 9 7 13 15 15 17 16 12 14 16 17 16 18 20 23 12 11 13 12 10 13 12 11 9 9 8 6 10 8 10 11 10 10 10 11 10
6 7 6 6 7 7 8 9 11 10 14 17 18 17 17 19 18 18 17 17 19 16 13 13 11 11 11 11 14 12 11 12 11 9 8 7 11 12 11 11 11 10 10
7 9 7 7 7 8 9 10 10 12 13 14 10 14 14 14 16 17 16 15 14 13 12 12 11 11 10 10 10 11 12 10 11 10 8 10 9 12 12 12 12 13 10
6 6 7 7 8 8 10 11 12 13 14 14 12 11 11 13 15 16 15 9 10 11 11 10 9 9 10 9 10 12 16 15 13 12 10 9 11 10 12 12 12 11 10
8 8 8 8 9 10 11 12 12 14 15 12 12 12 11 11 11 11 9 9 9 10 10 11 10 10 9 9 10 10 12 12 11 11 12 11 13 12 11 13 12 11 11
7 7 7 8 9 10 11 12 12 13 14 12 12 13 17 11 12 12 10 9 9 10 11 10 10 10 10 10 8 9 9 9 8 9 10 12 12 10 10 12 12 13 12
6 7 8 9 10 10 11 12 13 13 12 12 12 13 18 10 10 10 11 10 10 11 9 10 10 10 10 9 9 10 9 10 9 8 10 11 11 12 10 9 11 10 10
6 9 10 10 10 11 12 13 12 11 11 12 12 11 11 10 10 11 11 11 10 10 9 9 10 10 9 9 9 7 9 9 6 6 3 5 5 8 12 10 10 10 10
7 8 10 10 9 11 12 11 10 12 11 11 11 11 11 11 11 12 11 11 10 10 10 10 10 13 11 10 9 9 7 6 7 5 6 6 6 7 7 8 12 13 10
7 9 9 10 11 9 10 10 10 10 11 10 11 11 12 11 12 12 11 10 10 10 11 11 10 13 16 18 16 17 14 9 7 7 6 9 10 11 8 7 8 11 13
8 8 8 9 8 8 8 9 9 10 11 11 11 11 12 12 12 12 12 12 11 11 13 10 13 18 19 16 18 17 11 9 9 9 7 8 8 8 7 10 13 9 12
Wind_Direction
165 176 181 204 226 196 176 142 109 52 244 165 267 193 179 187 150 189 217 226 258 281 283 283 279 280 275 270 248 230 234 233 253 270 266 270 270 272 274 266 250 236 238
0 303 264 223 227 252 182 153 125 73 37 242 182 175 165 172 163 173 231 263 282 291 292 292 292 282 271 259 262 264 248 225 242 268 278 274 259 265 265 268 267 246 240
88 138 297 293 297 319 98 21 40 53 10 264 172 178 175 180 198 193 209 236 282 292 292 290 287 283 276 277 273 263 264 261 228 243 275 284 274 276 263 250 252 258 264
104 76 301 331 344 55 12 19 8 41 255 254 205 200 204 210 220 221 230 279 287 283 286 287 283 277 275 271 268 268 267 263 270 256 257 275 286 277 263 269 255 244 256
138 244 301 35 78 31 20 345 2 289 247 268 273 256 248 242 244 249 276 283 283 292 292 288 284 285 278 271 271 267 265 259 257 265 263 260 260 274 268 268 261 264 250
164 341 55 50 35 28 15 358 358 352 335 308 313 307 295 275 44 328 312 305 300 295 291 290 290 280 273 257 258 255 254 260 256 259 256 261 269 265 268 278 274 264 257
102 73 57 56 55 46 37 29 25 20 13 8 0 347 324 313 358 334 328 309 299 290 284 286 285 283 279 276 269 254 251 242 240 252 258 263 267 258 245 248 262 260 259
64 50 42 43 45 37 32 27 22 6 356 344 335 332 322 310 328 320 321 304 293 283 280 280 279 281 279 279 275 272 267 261 246 237 242 249 259 262 263 246 254 261 264
71 62 49 35 30 23 17 8 3 349 336 329 319 310 305 301 308 306 308 297 285 283 282 280 277 278 279 272 275 272 267 263 251 229 246 259 248 247 252 265 247 251 242
57 46 45 44 41 31 13 356 342 338 328 325 317 310 303 301 303 297 307 306 302 299 296 288 265 264 273 276 279 274 268 260 259 254 241 235 242 245 233 236 240 241 239
85 90 83 69 59 33 12 358 351 337 322 312 305 300 299 296 304 311 309 303 296 293 292 283 282 309 326 303 293 283 263 272 266 257 258 256 248 252 245 219 229 229 239
102 89 71 51 33 26 5 3 359 342 326 323 312 303 300 300 291 286 290 288 292 288 289 284 288 322 315 302 302 289 267 269 267 261 255 254 250 249 249 244 236 232 239
76 58 46 36 28 13 356 356 345 337 333 325 312 306 308 311 308 302 294 280 278 286 291 297 296 277 282 287 279 288 299 259 250 248 247 251 256 262 273 264 259 241 235
39 21 7 355 351 346 335 341 332 336 338 330 321 314 310 312 309 310 314 318 314 309 304 295 301 295 274 265 272 274 269 264 276 245 246 259 262 260 257 260 255 247 230
269 295 307 311 317 317 312 315 316 319 325 321 315 311 305 301 302 315 300 299 300 295 299 285 279 281 284 279 273 264 251 253 239 245 257 265 262 262 261 259 256 257 245
258 266 284 295 289 296 304 307 257 244 267 266 264 265 279 272 275 275 278 283 289 293 285 286 281 278 269 277 269 272 267 250 238 243 263 270 269 267 263 260 255 253 252
258 273 275 264 283 289 297 298 304 301 231 249 263 258 255 263 277 279 277 280 285 282 274 271 268 261 264 261 266 267 266 269 256 248 234 247 260 264 258 256 257 241 242
258 246 267 282 293 299 303 306 304 307 311 315 290 277 280 264 266 263 263 280 294 289 281 280 270 252 249 259 269 267 265 262 263 242 231 242 247 253 255 255 252 251 238
288 296 299 303 303 304 303 307 308 307 308 313 308 291 292 275 276 272 267 267 272 280 283 276 269 257 252 263 277 277 267 258 247 254 248 246 253 255 251 254 252 244 240
309 291 285 306 312 313 312 313 312 312 310 310 302 300 304 299 299 296 287 278 273 275 277 274 266 256 253 264 264 269 265 261 251 239 246 251 251 244 245 247 247 240 229
312 309 304 299 310 315 314 312 315 318 315 304 299 300 295 294 293 291 288 282 274 272 272 270 268 268 265 258 266 271 271 270 271 268 266 258 244 236 236 254 252 248 243
306 315 318 318 319 317 324 312 317 321 309 305 306 307 305 297 293 291 285 279 273 269 270 270 268 265 265 262 258 260 259 266 259 258 261 254 244 236 227 227 244 251 247
321 325 329 328 327 328 323 327 327 314 312 313 312 311 312 307 303 298 294 289 283 275 267 268 268 265 261 258 251 262 265 260 279 280 303 310 323 266 240 227 237 248 239
339 339 336 334 341 333 333 326 315 315 313 313 311 309 306 304 300 296 292 289 284 280 275 267 264 266 267 261 260 260 245 263 260 274 302 291 286 281 300 256 246 251 253
348 347 346 347 341 333 326 322 320 318 315 313 311 309 307 305 303 301 297 292 287 282 276 273 268 263 263 263 260 259 263 242 264 283 283 268 270 273 273 272 270 252 255
358 0 353 349 337 329 323 322 320 319 317 315 313 311 310 309 304 303 304 298 289 282 277 269 265 266 263 264 263 265 266 262 263 235 258 266 266 261 259 263 263 266 254